Pismo Beach Weather Center

Moon Phase Calendar



Online Cameras

 


      

Current Conditions in Grover Beach
4/20/2024 1:51:56 PM

69°F
Feels Like 68
Clear
Humidity
70%
Pressure
30.27"
Wind
11.5 mph (WNW)
Dew Point
58°F
UV Index
8/10 (Very High)
Visibility
6 mi

Hourly Forecast

Date & Time Sat, Apr 20
1:00 PM
Sat, Apr 20
2:00 PM
Sat, Apr 20
3:00 PM
Sat, Apr 20
4:00 PM
Sat, Apr 20
5:00 PM
Sat, Apr 20
6:00 PM
Sat, Apr 20
7:00 PM
Sat, Apr 20
8:00 PM
Sat, Apr 20
9:00 PM
Sat, Apr 20
10:00 PM
Sat, Apr 20
11:00 PM
Sun, Apr 21
12:00 AM
Sun, Apr 21
1:00 AM
Sun, Apr 21
2:00 AM
Sun, Apr 21
3:00 AM
Sun, Apr 21
4:00 AM
Sun, Apr 21
5:00 AM
Sun, Apr 21
6:00 AM
Sun, Apr 21
7:00 AM
Sun, Apr 21
8:00 AM
Sun, Apr 21
9:00 AM
Sun, Apr 21
10:00 AM
Sun, Apr 21
11:00 AM
Sun, Apr 21
12:00 PM
Sun, Apr 21
1:00 PM
Sun, Apr 21
2:00 PM
Sun, Apr 21
3:00 PM
Sun, Apr 21
4:00 PM
Sun, Apr 21
5:00 PM
Sun, Apr 21
6:00 PM
Sun, Apr 21
7:00 PM
Sun, Apr 21
8:00 PM
Sun, Apr 21
9:00 PM
Sun, Apr 21
10:00 PM
Sun, Apr 21
11:00 PM
Mon, Apr 22
12:00 AM
Mon, Apr 22
1:00 AM
Mon, Apr 22
2:00 AM
Mon, Apr 22
3:00 AM
Mon, Apr 22
4:00 AM
Mon, Apr 22
5:00 AM
Mon, Apr 22
6:00 AM
Mon, Apr 22
7:00 AM
Mon, Apr 22
8:00 AM
Mon, Apr 22
9:00 AM
Mon, Apr 22
10:00 AM
Mon, Apr 22
11:00 AM
Mon, Apr 22
12:00 PM
Condition
Clear

Clear

Clear

Clear

Clear

Clear

Clear

Clear

Clear

Clear

Clear

Clear

Clear

Clear

Clear

Clear

Clear

Clear

Clear

Clear

Clear

Clear

Clear

Clear

Clear

Clear

Clouds

Clouds

Clouds

Clouds

Clouds

Clouds

Clouds

Clouds

Clouds

Clear

Clear

Clouds

Clouds

Clouds

Clouds

Clouds

Clouds

Clouds

Clouds

Clouds

Clouds

Clouds
Temperature 68°F69°F68°F67°F67°F65°F61°F58°F58°F58°F59°F59°F59°F59°F59°F59°F59°F58°F59°F62°F66°F70°F72°F72°F72°F71°F70°F68°F65°F62°F59°F56°F55°F55°F54°F54°F54°F53°F53°F52°F52°F52°F53°F55°F58°F59°F61°F62°F
Feels Like 68°F68°F68°F67°F66°F64°F60°F58°F58°F58°F58°F58°F58°F58°F58°F58°F57°F57°F57°F61°F66°F69°F71°F71°F72°F71°F69°F68°F65°F62°F58°F55°F54°F54°F54°F53°F53°F53°F52°F52°F52°F52°F53°F55°F57°F59°F60°F61°F
Cloudiness 5%0%4%8%10%2%1%1%0%0%0%0%0%0%0%0%0%0%0%0%0%0%7%3%4%4%15%29%34%23%28%28%27%25%23%7%10%11%11%15%19%61%68%74%79%75%73%46%
Visibility 6 mi6 mi6 mi6 mi6 mi6 mi6 mi6 mi6 mi6 mi6 mi6 mi6 mi6 mi6 mi6 mi6 mi6 mi6 mi6 mi6 mi6 mi6 mi6 mi6 mi6 mi6 mi6 mi6 mi6 mi6 mi6 mi6 mi6 mi6 mi6 mi6 mi4 mi4 mi5 mi6 mi6 mi6 mi6 mi6 mi6 mi6 mi6 mi
Precipitation 0%0%0%0%0%0%0%0%0%0%0%0%0%0%0%0%0%0%0%0%0%0%0%0%0%0%0%0%0%0%0%0%0%0%0%0%0%0%0%0%0%0%0%0%0%0%0%0%
Humidity 71%70%70%71%71%76%83%84%81%78%75%72%70%70%70%71%71%72%72%70%60%51%45%47%48%52%59%64%71%79%88%93%93%92%90%91%91%91%93%95%95%95%95%90%84%80%77%75%
Dew Point 58°F58°F58°F58°F57°F57°F55°F53°F52°F51°F50°F49°F49°F48°F48°F49°F49°F48°F49°F52°F51°F49°F47°F48°F49°F51°F52°F53°F54°F55°F54°F53°F52°F52°F51°F51°F50°F50°F50°F50°F50°F50°F51°F52°F52°F53°F53°F53°F
Pressure 30.21"30.27"30.21"30.15"30.09"30.03"29.97"30"30"30"30"30"30"30"29.97"29.97"29.97"29.97"29.97"29.97"29.97"29.97"29.94"29.94"29.94"29.91"29.91"29.88"29.88"29.88"29.88"29.91"29.91"29.91"29.91"29.88"29.88"29.88"29.88"29.88"29.88"29.88"29.88"29.88"29.88"29.88"29.91"29.91"
Wind Speed 8.9 mph9.2 mph10.6 mph10.2 mph10.1 mph8.4 mph8.2 mph7.4 mph6.2 mph6.2 mph5.6 mph5.7 mph5.9 mph6 mph6.3 mph6.8 mph6.6 mph6.7 mph6.4 mph5.1 mph5.9 mph7.1 mph8 mph9.9 mph10.4 mph11.9 mph12.2 mph11.9 mph10.8 mph8.7 mph6.8 mph5.4 mph3.8 mph2.4 mph2.3 mph3.1 mph0.8 mph1.3 mph2 mph0.7 mph1.3 mph1.7 mph2.1 mph2.8 mph4 mph5.1 mph5.1 mph5.5 mph
Wind
Direction
290°
WNW
287°
WNW
295°
WNW
303°
WNW
303°
WNW
305°
NW
313°
NW
323°
NW
323°
NW
330°
NNW
341°
NNW
349°
N
358°
N

N

N

N

N

N
16°
NNE
358°
N
339°
NNW
340°
NNW
323°
NW
308°
NW
310°
NW
307°
NW
308°
NW
308°
NW
304°
NW
301°
WNW
299°
WNW
297°
WNW
308°
NW
306°
NW
283°
WNW
289°
WNW
272°
W
188°
S
202°
SSW
207°
SSW
131°
SE
166°
SSE
137°
SE
161°
SSE
208°
SSW
233°
SW
232°
SW
237°
WSW

Daily Forecast

Date High Low Precip. Humidity
Today
Apr 20

Clear
69 °F
52 °F
0%
71%
Sunday
Apr 21

Clear
72 °F
54 °F
0%
48%
Monday
Apr 22

Clouds
62 °F
51 °F
0%
74%
Tuesday
Apr 23

Clouds
59 °F
50 °F
0%
64%
Wednesday
Apr 24

Clouds
59 °F
48 °F
0%
63%
Thursday
Apr 25

Clouds
60 °F
48 °F
0%
72%
Friday
Apr 26

Rain
59 °F
51 °F
65%
76%
Saturday
Apr 27

Rain
57 °F
47 °F
100%
68%
Sunday
Apr 28

Clear
60 °F
47 °F
0%
61%
Monday
Apr 29

Clear
61 °F
49 °F
0%
65%
Tuesday
Apr 30

Clear
65 °F
51 °F
0%
60%
Wednesday
May 1

Clear
69 °F
53 °F
0%
54%
Thursday
May 2

Clear
69 °F
54 °F
0%
61%
Friday
May 3

Clouds
66 °F
55 °F
0%
69%
Saturday
May 4

Clouds
62 °F
54 °F
0%
75%
Sunday
May 5

Rain
61 °F
52 °F
76%
69%

Temperature 8-14 Day Outlook



Precipitation 8-14 Day Outlook




Quick Links
Pismo Beach News
Pismo Beach Photos
Pismo Beach Videos




About Us
Contact Us
Site Map
Search Site
Advertise With Us
   
PismoBeach.USCoast.info
THE PISMO BEACH WEBSITE

Copyright 2024, Coastal Town
Privacy    |    Legal